« Back
NWS Peachtree City, Ga » Text Product » GA Regional Weather Roundup


Printer-friendly Version
Current Version              Previous Versions:   1  2  3  4  5  6  7  8  9  

Regional Weather Roundup

605
ASUS42 KFFC 041903
RWRGA
WEATHER ROUNDUP FOR GEORGIA
NATIONAL WEATHER SERVICE PEACHTREE CITY GA
300 PM EDT SAT JUL 04 2015

NOTE: "FAIR" INDICATES FEW OR NO CLOUDS BELOW 12,000 FEET WITH NO
SIGNIFICANT WEATHER AND/OR OBSTRUCTIONS TO VISIBILITY.

* = USE WITH CAUTION. THE STATIONS MARKED WITH AN ASTERISK MAY NOT
REPORT WEATHER SUCH AS PRECIPITATION, FOG, OR THUNDER AND ARE NOT
QUALITY CONTROLLED BY NWS.

THE REMARK "TC" DENOTES TEMPERATURE READING IN DEGREES CELSIUS.

GAZ001>058-042000-
NORTH GEORGIA

CITY           SKY/WX    TMP DP  RH WIND       PRES   REMARKS
ATLANTA        PTSUNNY   82  69  64 W5        30.06F
ATHENS         MOSUNNY   81  70  69 SW7       30.05F
CHAMBLEE       MOSUNNY   82  69  64 W7        30.06F
PEACHTREE CITY MOSUNNY   82  68  62 CALM      30.07F
ROME           PTSUNNY   79  69  71 SW6       30.03F
WEST ATLANTA   MOSUNNY   82  68  62 SW5       30.05F
GAINESVILLE    MOSUNNY   77  67  71 W10       30.08F
CARTERSVILLE   MOSUNNY   80  68  66 VRB3      30.05F


CITY           SKY/WX    TMP DP  RH WIND       PRES   REMARKS
DALTON*        CLOUDY    77  70  78 S3        30.04F
LAWRENCEVILLE* MOSUNNY   79  64  61 NW9       30.05F
MARIETTA       PTSUNNY   81  69  66 W6        30.06F
KENNESAW*      MOSUNNY  N/A N/A N/A W6G16     30.07F
BLAIRSVILLE*     N/A     75  54  47 W5        30.09S
$$

GAZ059>098-102>109-042000-
CENTRAL GEORGIA

CITY           SKY/WX    TMP DP  RH WIND       PRES   REMARKS
AUGUSTA-BUSH   MOSUNNY   86  69  56 W5        30.04F HX  90
AUGUSTA-DANIEL MOSUNNY   86  69  56 SW7       30.06F HX  90
COLUMBUS       PTSUNNY   82  71  69 SE8       30.07S
MACON          PTSUNNY   83  70  64 S6        30.09S
ROBINS AFB     PTSUNNY   78  73  82 S6        30.09R


CITY           SKY/WX    TMP DP  RH WIND       PRES   REMARKS
LAGRANGE*      PTSUNNY   86  76  72 CALM      30.07S HX  97
SYLVANIA*      MOSUNNY   91  73  56 W7        30.07F HX  99
MILLEDGEVILLE* PTSUNNY   86  70  58 CALM      30.06F HX  90
$$

GAZ099>101-110>166-042000-
SOUTH GEORGIA

CITY           SKY/WX    TMP DP  RH WIND       PRES   REMARKS
SAVANNAH       PTSUNNY   91  69  48 W6        30.06F HX  96
VALDOSTA       SUNNY     94  70  45 MISG      30.07F HX 100
ALMA           MOSUNNY   90  71  53 VRB7      30.06F HX  96
ST SIMONS      SUNNY     86  76  71 SE15      30.08F HX  96
FT STEWART     PTSUNNY   90  71  52 SW9       30.04F HX  96
ALBANY         CLOUDY    78  71  79 VRB3      30.12R
HUNTER AFB     MOSUNNY   92  72  50 W8        30.04F HX 100
MOODY AFB      PTSUNNY   92  67  43 SW13      30.06F HX  95
BRUNSWICK      MOSUNNY   91  72  52 SW5       30.08S HX  98


CITY           SKY/WX    TMP DP  RH WIND       PRES   REMARKS
BAINBRIDGE*    PTSUNNY   88  75  66 NW7       30.07S THUNDER HX  97
MOULTRIE*      CLOUDY    79  70  73 W13G25    30.12R THUNDER
VIDALIA*       MOSUNNY   88  72  58 S9G16     30.06F HX  94
WAYCROSS*      MOSUNNY   94  73  50 W7        30.07S HX 103
DOUGLAS*       PTSUNNY   90  72  55 NW7       30.08S HX  96
$$



USA.gov is the U.S. government's official web portal to all federal, state and local government web resources and services.